Location: Arborea
(39.7744°N, 8.5819°E)
Time: 20:08:57
(UTC+00:00)

Cosmos 1844 - Pass Details

Date: 24 October 2021
Orbit: 822 x 868 km, 70.9° (Epoch: 06 December)

Event Time Altitude Azimuth Distance (km) Brightness Sun altitude
Rises 18:14:34 0° 340° (NNW) 3,457 7.2 -20.0°
Reaches altitude 10° 18:17:07 10° 345° (NNW) 2,513 6.3 -20.5°
Maximum altitude 18:22:47 55° 63° (ENE) 1,026 3.8 -21.6°
Enters shadow 18:24:06 45° 108° (ESE) 1,155 3.9 -21.9°
